FW1692 Weather Reports


Display with metric or nautical units.
time (UTC)temp
F
wind
direction
speed
MPH
gust
MPH
rain 1hr
in
rain 24hr
in
rain mn
in
humidity
%
barometer
mb
20260506021023 46 337 2.0 4.0 0.00 0.00 0.00 79 1018.3
20260506020747 46 113 1.0 3.0 0.00 0.00 0.00 79 1018.3
20260506020022 46 1 0.0 4.0 0.00 0.00 0.00 79 1018.2
20260506015520 46 1 2.0 4.0 0.00 0.00 0.00 79 1018.2
20260506015021 46 35 0.0 2.0 0.00 0.00 0.00 79 1018.2
20260506014517 46 37 0.0 2.0 0.00 0.00 0.00 79 1018.2
20260506014018 46 37 1.0 4.0 0.00 0.00 0.00 79 1018.3
20260506013744 46 37 0.0 5.0 0.00 0.00 0.00 78 1018.2
20260506013016 46 353 2.0 4.0 0.00 0.00 0.00 79 1018.2
20260506012516 46 14 1.0 3.0 0.00 0.00 0.00 79 1018.3
20260506012455 46 11 1.0 2.0 0.00 0.00 0.00 79 1018.4
20260506011513 46 11 1.0 4.0 0.00 0.00 0.00 79 1018.3
20260506011013 46 10 1.0 4.0 0.00 0.00 0.00 79 1018.4
20260506010511 46 24 1.0 3.0 0.00 0.00 0.00 79 1018.3
20260506010013 46 34 1.0 4.0 0.00 0.00 0.00 79 1018.3
20260506005512 46 21 1.0 4.0 0.00 0.00 0.00 79 1018.3
20260506005011 46 41 2.0 3.0 0.00 0.00 0.00 80 1018.3
20260506004734 46 7 1.0 4.0 0.00 0.00 0.00 80 1018.4
20260506004010 46 54 2.0 4.0 0.00 0.00 0.00 80 1018.4
20260506003508 46 24 2.0 3.0 0.00 0.00 0.00 80 1018.4
20260506003229 46 14 2.0 3.0 0.00 0.00 0.00 80 1018.4
20260506002509 46 0 2.0 3.0 0.00 0.00 0.00 80 1018.4
20260506002008 46 39 1.0 5.0 0.00 0.00 0.00 80 1018.5
20260506001507 46 11 0.0 5.0 0.00 0.00 0.00 80 1018.5
20260506001006 46 75 2.0 5.0 0.00 0.00 0.00 80 1018.5
20260506000505 46 96 1.0 4.0 0.00 0.00 0.00 80 1018.4
20260506000231 46 0 1.0 3.0 0.00 0.00 0.00 80 1018.5
20260505235504 46 78 1.0 3.0 0.00 0.00 0.00 80 1018.5
20260505235005 46 52 1.0 3.0 0.00 0.00 0.00 80 1018.4
20260505234727 46 34 2.0 4.0 0.00 0.00 0.00 80 1018.4
20260505234004 46 25 2.0 5.0 0.00 0.00 0.00 80 1018.4
20260505233504 46 14 3.0 5.0 0.00 0.00 0.00 80 1018.3
20260505233003 46 83 3.0 9.0 0.00 0.00 0.00 80 1018.4
20260505232504 46 87 2.0 9.0 0.00 0.00 0.00 79 1018.5
20260505232226 46 39 3.0 5.0 0.00 0.00 0.00 79 1018.5
20260505231502 47 355 1.0 5.0 0.00 0.00 0.00 79 1018.5
20260505231002 47 41 2.0 6.0 0.00 0.00 0.00 79 1018.5
20260505230733 47 137 3.0 6.0 0.00 0.00 0.00 79 1018.5
20260505230002 47 17 2.0 6.0 0.00 0.00 0.00 79 1018.5
20260505225502 47 63 2.0 5.0 0.00 0.00 0.00 78 1018.6
20260505225002 47 17 2.0 6.0 0.00 0.00 0.00 78 1018.6
20260505224502 47 11 3.0 6.0 0.00 0.00 0.00 78 1018.6
20260505224002 47 0 2.0 5.0 0.00 0.00 0.00 78 1018.6
20260505223502 47 82 1.0 5.0 0.00 0.00 0.00 78 1018.5
20260505222959 47 357 2.0 5.0 0.00 0.00 0.00 78 1018.6
20260505222500 47 24 2.0 6.0 0.00 0.00 0.00 78 1018.6
20260505221958 47 3 2.0 6.0 0.00 0.00 0.00 78 1018.6
20260505221457 47 28 3.0 6.0 0.00 0.00 0.00 78 1018.6
20260505220959 47 78 2.0 6.0 0.00 0.00 0.00 78 1018.6
20260505220456 47 0 4.0 5.0 0.00 0.00 0.00 78 1018.5
20260505215957 47 32 2.0 5.0 0.00 0.00 0.00 78 1018.4
20260505215456 47 78 2.0 6.0 0.00 0.00 0.00 77 1018.4
20260505214956 47 351 3.0 6.0 0.00 0.00 0.00 77 1018.4
20260505214457 47 16 3.0 7.0 0.00 0.00 0.00 77 1018.4
20260505213956 47 347 3.0 7.0 0.00 0.00 0.00 77 1018.3
20260505213454 47 109 2.0 6.0 0.00 0.00 0.00 76 1018.4
20260505212953 47 38 3.0 9.0 0.00 0.00 0.00 76 1018.3
20260505212452 48 10 2.0 9.0 0.00 0.00 0.00 76 1018.3
20260505211951 48 0 2.0 7.0 0.00 0.00 0.00 76 1018.4
20260505211713 48 55 4.0 9.0 0.00 0.00 0.00 76 1018.4
20260505210951 48 44 4.0 9.0 0.00 0.00 0.00 76 1018.4
20260505210450 48 337 4.0 12.0 0.00 0.00 0.00 76 1018.4
20260505205950 48 90 5.0 12.0 0.00 0.00 0.00 76 1018.4
20260505205449 49 337 4.0 10.0 0.00 0.00 0.00 76 1018.3
20260505204948 49 42 5.0 9.0 0.00 0.00 0.00 76 1018.3
20260505204447 49 49 3.0 10.0 0.00 0.00 0.00 76 1018.3
20260505203946 49 76 5.0 10.0 0.00 0.00 0.00 76 1018.3
20260505203446 49 56 4.0 10.0 0.00 0.00 0.00 77 1018.3
20260505202946 49 24 3.0 10.0 0.00 0.00 0.00 77 1018.3
20260505202446 49 34 5.0 7.0 0.00 0.00 0.00 77 1018.3
20260505201946 49 30 2.0 9.0 0.00 0.00 0.00 77 1018.2
20260505201447 49 353 5.0 9.0 0.00 0.00 0.00 77 1018.1
20260505200947 50 37 2.0 6.0 0.00 0.00 0.00 77 1018.1
20260505200706 50 0 3.0 9.0 0.00 0.00 0.00 77 1018.0
20260505200216 50 32 3.0 5.0 0.00 0.00 0.00 77 1018.1
20260505195445 50 83 3.0 11.0 0.00 0.00 0.00 77 1018.0
20260505194945 50 35 4.0 11.0 0.00 0.00 0.00 77 1018.0
20260505194445 50 337 4.0 11.0 0.00 0.00 0.00 77 1017.9
20260505193945 51 62 3.0 7.0 0.00 0.00 0.00 77 1017.8
20260505193445 51 345 3.0 7.0 0.00 0.00 0.00 76 1017.8
20260505192943 51 4 3.0 7.0 0.00 0.00 0.00 76 1017.6
20260505192443 51 1 3.0 9.0 0.00 0.00 0.00 76 1017.5
20260505191943 51 16 4.0 9.0 0.00 0.00 0.00 76 1017.5
20260505191937 51 358 4.0 9.0 0.00 0.00 0.00 76 1017.5
20260505190939 51 18 3.0 9.0 0.00 0.00 0.00 76 1017.5
20260505190434 52 0 1.0 7.0 0.00 0.00 0.00 76 1017.3
20260505185935 52 344 3.0 7.0 0.00 0.00 0.00 76 1017.3
20260505185432 52 0 4.0 7.0 0.00 0.00 0.00 76 1017.3
20260505184932 52 90 2.0 7.0 0.00 0.00 0.00 76 1017.3
20260505184432 52 90 3.0 7.0 0.00 0.00 0.00 76 1017.3
20260505183934 52 276 3.0 7.0 0.00 0.00 0.00 76 1017.2
20260505183432 53 17 2.0 7.0 0.00 0.00 0.00 76 1017.1
20260505182932 53 357 2.0 5.0 0.00 0.00 0.00 76 1017.2
20260505182431 53 327 3.0 5.0 0.00 0.00 0.00 76 1017.1
20260505181932 53 94 2.0 7.0 0.00 0.00 0.00 76 1017.1
20260505181432 53 0 3.0 7.0 0.00 0.00 0.00 75 1017.1
20260505180932 53 0 2.0 5.0 0.00 0.00 0.00 75 1017.2
20260505180430 53 345 2.0 3.0 0.00 0.00 0.00 75 1017.1
20260505175932 53 347 2.0 4.0 0.00 0.00 0.00 76 1017.1
20260505175431 53 340 2.0 5.0 0.00 0.00 0.00 75 1017.1
20260505175150 53 330 2.0 5.0 0.00 0.00 0.00 75 1017.1
20260505174430 54 321 2.0 6.0 0.00 0.00 0.00 75 1017.0
20260505173931 54 337 2.0 7.0 0.00 0.00 0.00 74 1017.0
20260505173654 54 309 4.0 7.0 0.00 0.00 0.00 72 1017.0
20260505172930 54 303 2.0 10.0 0.00 0.00 0.00 71 1017.0
20260505172430 54 347 3.0 10.0 0.00 0.00 0.00 71 1017.1
20260505171931 55 271 4.0 6.0 0.00 0.00 0.00 70 1017.0
20260505171647 55 326 4.0 6.0 0.00 0.00 0.00 70 1017.0
20260505170928 55 295 2.0 6.0 0.00 0.00 0.00 70 1017.0
20260505170428 55 254 2.0 6.0 0.00 0.00 0.00 71 1017.0
20260505165929 55 283 2.0 6.0 0.00 0.00 0.00 71 1017.0
20260505165650 55 279 3.0 7.0 0.00 0.00 0.00 70 1017.0
20260505165646 55 269 4.0 7.0 0.00 0.00 0.00 70 1017.1
20260505164647 55 278 4.0 6.0 0.00 0.00 0.00 70 1017.1
20260505163927 55 228 3.0 6.0 0.00 0.00 0.00 70 1017.0
20260505163427 55 282 4.0 5.0 0.00 0.00 0.00 70 1017.1
20260505162927 56 286 1.0 6.0 0.00 0.00 0.00 70 1017.1
20260505162427 56 289 3.0 7.0 0.00 0.00 0.00 68 1017.0
20260505161927 56 255 4.0 7.0 0.00 0.00 0.00 68 1017.0
20260505161647 56 244 4.0 6.0 0.00 0.00 0.00 66 1016.9
20260505160925 57 262 1.0 4.0 0.00 0.00 0.00 64 1016.9
20260505160427 57 262 2.0 5.0 0.00 0.00 0.00 64 1017.0
20260505152925 56 213 2.0 5.0 0.00 0.00 0.00 67 1017.1
20260505152425 57 261 4.0 6.0 0.00 0.00 0.00 68 1017.1
20260505151926 56 259 2.0 6.0 0.00 0.00 0.00 68 1017.0
20260505151425 56 240 3.0 9.0 0.00 0.00 0.00 68 1017.0
20260505150925 56 190 4.0 9.0 0.00 0.00 0.00 69 1017.0
20260505150426 56 271 4.0 9.0 0.00 0.00 0.00 70 1017.1
20260505140423 55 258 2.0 5.0 0.00 0.00 0.00 70 1017.3
20260505124922 55 295 4.0 11.0 0.00 0.00 0.00 72 1017.4
20260505124423 55 180 3.0 10.0 0.00 0.00 0.00 72 1017.4
20260505123923 55 323 4.0 10.0 0.00 0.00 0.00 71 1017.5
20260505123422 55 271 3.0 10.0 0.00 0.00 0.00 71 1017.5
20260505122922 55 268 4.0 7.0 0.00 0.00 0.00 72 1017.4
20260505122422 55 251 3.0 9.0 0.00 0.00 0.00 70 1017.4
20260505122407 55 290 3.0 9.0 0.00 0.00 0.00 71 1017.4
20260505121422 55 329 4.0 7.0 0.00 0.00 0.00 72 1017.4
20260505120922 55 255 4.0 7.0 0.00 0.00 0.00 72 1017.5
20260505120422 55 266 4.0 7.0 0.00 0.00 0.00 71 1017.5
20260505115922 55 334 4.0 9.0 0.00 0.00 0.00 71 1017.5
20260505115421 54 272 5.0 9.0 0.00 0.00 0.00 73 1017.5
20260505114921 53 266 2.0 6.0 0.00 0.00 0.00 72 1017.5
20260505114421 53 334 3.0 7.0 0.00 0.00 0.00 72 1017.6
20260505113921 53 298 2.0 7.0 0.00 0.00 0.00 72 1017.6
20260505113421 53 248 4.0 7.0 0.00 0.00 0.00 72 1017.6
20260505112921 53 326 3.0 7.0 0.00 0.00 0.00 72 1017.7
20260505112419 53 323 2.0 7.0 0.00 0.00 0.00 72 1017.7
20260505111921 53 283 2.0 7.0 0.00 0.00 0.00 73 1017.8
20260505111421 53 295 3.0 5.0 0.00 0.00 0.00 73 1017.7
20260505111151 53 11 3.0 7.0 0.00 0.00 0.00 74 1017.6
20260505110642 53 293 4.0 7.0 0.00 0.00 0.00 74 1017.6
20260505102150 53 302 5.0 11.0 0.00 0.00 0.00 71 1017.9
20260505101905 53 333 4.0 9.0 0.00 0.00 0.00 71 1017.8
20260505100919 53 310 4.0 9.0 0.00 0.00 0.00 71 1017.8
20260505100417 54 4 5.0 9.0 0.00 0.00 0.00 70 1017.7
20260505100140 54 306 2.0 10.0 0.00 0.00 0.00 69 1017.7
20260505095419 55 305 3.0 10.0 0.00 0.00 0.00 69 1017.7
20260505094919 54 313 2.0 7.0 0.00 0.00 0.00 71 1017.6
20260505094419 53 295 3.0 7.0 0.00 0.00 0.00 72 1017.7
20260505093920 53 292 4.0 7.0 0.00 0.00 0.00 74 1017.8
20260505093418 53 299 2.0 7.0 0.00 0.00 0.00 74 1017.7
20260505092919 52 305 3.0 7.0 0.00 0.00 0.00 76 1017.8
20260505092418 52 0 4.0 9.0 0.00 0.00 0.00 76 1017.8
20260505091919 51 341 3.0 9.0 0.00 0.00 0.00 76 1017.8
20260505091417 51 300 4.0 6.0 0.00 0.00 0.00 78 1017.8
20260505090918 51 288 2.0 6.0 0.00 0.00 0.00 79 1017.8
20260505090417 51 319 3.0 9.0 0.00 0.00 0.00 80 1017.8
20260505085918 51 0 2.0 9.0 0.00 0.00 0.00 80 1017.9
20260505085417 51 6 2.0 5.0 0.00 0.00 0.00 80 1017.9
20260505084918 51 292 3.0 5.0 0.00 0.00 0.00 81 1017.9
20260505084416 51 0 3.0 5.0 0.00 0.00 0.00 83 1017.8
20260505083919 51 321 1.0 4.0 0.00 0.00 0.00 84 1017.9
20260505083638 51 306 2.0 4.0 0.00 0.00 0.00 86 1017.9
20260505082917 51 289 1.0 4.0 0.00 0.00 0.00 86 1017.9
20260505082417 51 289 2.0 5.0 0.00 0.00 0.00 87 1018.0
20260505081918 51 299 3.0 7.0 0.00 0.00 0.00 87 1018.0
20260505081417 50 248 3.0 7.0 0.00 0.00 0.00 89 1017.9
20260505080917 50 324 2.0 5.0 0.00 0.00 0.00 89 1018.0
20260505080416 50 319 3.0 5.0 0.00 0.00 0.00 91 1018.0
20260505075917 49 288 2.0 4.0 0.00 0.00 0.00 91 1017.9
20260505075416 49 283 0.0 4.0 0.00 0.00 0.00 92 1017.9
20260505074917 49 305 1.0 3.0 0.00 0.00 0.00 93 1017.9
20260505074415 49 351 0.0 2.0 0.00 0.00 0.00 93 1017.8
20260505073917 48 351 0.0 4.0 0.00 0.00 0.00 94 1017.8
20260505073416 48 0 1.0 4.0 0.00 0.00 0.00 94 1017.8
20260505073139 48 275 2.0 3.0 0.00 0.00 0.00 94 1017.8
20260505072414 48 314 0.0 3.0 0.00 0.00 0.00 95 1017.9
20260505071916 47 317 1.0 3.0 0.00 0.00 0.00 95 1017.9
20260505071415 47 0 1.0 5.0 0.00 0.00 0.00 95 1017.9
20260505070916 47 4 2.0 5.0 0.00 0.00 0.00 95 1017.9
20260505070415 47 340 2.0 4.0 0.00 0.00 0.00 95 1017.8
20260505065915 47 355 0.0 1.0 0.00 0.00 0.00 95 1017.8
20260505065414 47 355 0.0 2.0 0.00 0.00 0.00 95 1017.8
20260505064916 47 355 1.0 2.0 0.00 0.00 0.00 95 1017.8
20260505064414 46 355 1.0 3.0 0.00 0.00 0.00 95 1018.0
20260505063913 46 351 2.0 4.0 0.00 0.00 0.00 95 1018.1
20260505063858 46 351 1.0 4.0 0.00 0.00 0.00 95 1018.0
20260505062915 46 358 1.0 3.0 0.00 0.00 0.00 96 1018.0
20260505062644 45 358 0.0 5.0 0.00 0.00 0.00 96 1018.0
20260505061915 44 0 3.0 5.0 0.00 0.00 0.00 96 1018.1
20260505061414 44 255 0.0 0.0 0.00 0.00 0.00 95 1018.1
20260505060914 43 255 0.0 0.0 0.00 0.00 0.00 95 1018.0
20260505060413 42 255 0.0 2.0 0.00 0.00 0.00 95 1018.1
20260505055914 42 255 0.0 2.0 0.00 0.00 0.00 95 1018.0
20260505055413 41 255 0.0 2.0 0.00 0.00 0.00 95 1018.0
20260505054914 41 255 0.0 2.0 0.00 0.00 0.00 95 1018.0
20260505054412 41 255 0.0 2.0 0.00 0.00 0.00 94 1018.0
20260505053914 40 255 0.0 3.0 0.00 0.00 0.00 95 1018.0
20260505053413 40 255 0.0 3.0 0.00 0.00 0.00 95 1017.9
20260505052913 39 295 1.0 2.0 0.00 0.00 0.00 94 1017.9
20260505052410 39 295 0.0 0.0 0.00 0.00 0.00 94 1017.8
20260505051913 39 295 0.0 0.0 0.00 0.00 0.00 94 1017.7
20260505051412 39 295 0.0 0.0 0.00 0.00 0.00 94 1017.8
20260505051137 38 295 0.0 0.0 0.00 0.00 0.00 94 1017.8
20260505050412 38 295 0.0 0.0 0.00 0.00 0.00 94 1017.7
20260505041410 39 295 0.0 0.0 0.00 0.00 0.00 93 1017.5
20260505040911 39 295 0.0 0.0 0.00 0.00 0.00 93 1017.5
20260505040410 39 295 0.0 0.0 0.00 0.00 0.00 93 1017.4
20260505035909 39 295 0.0 0.0 0.00 0.00 0.00 93 1017.4
20260505035410 39 295 0.0 0.0 0.00 0.00 0.00 93 1017.4
20260505034910 39 295 0.0 0.0 0.00 0.00 0.00 93 1017.4
20260505034637 40 295 0.0 0.0 0.00 0.00 0.00 93 1017.4
20260505034131 40 295 0.0 0.0 0.00 0.00 0.00 93 1017.5
20260505033409 40 295 0.0 0.0 0.00 0.00 0.00 93 1017.5
20260505033130 40 295 0.0 0.0 0.00 0.00 0.00 93 1017.5
20260505032409 40 295 0.0 0.0 0.00 0.00 0.00 93 1017.5
20260505031909 40 295 0.0 0.0 0.00 0.00 0.00 93 1017.5
20260505031409 40 295 0.0 0.0 0.00 0.00 0.00 93 1017.5
20260505030908 40 295 0.0 0.0 0.00 0.00 0.00 93 1017.5
20260505030630 40 295 0.0 0.0 0.00 0.00 0.00 93 1017.7
20260505025908 40 295 0.0 0.0 0.00 0.00 0.00 93 1017.6
20260505025408 40 295 0.0 0.0 0.00 0.00 0.00 93 1017.7
20260505025124 40 295 0.0 0.0 0.00 0.00 0.00 93 1017.6
20260505024628 41 295 0.0 0.0 0.00 0.00 0.00 93 1017.6
20260505024141 41 295 0.0 0.0 0.00 0.00 0.00 93 1017.7
20260505023407 41 295 0.0 0.0 0.00 0.00 0.00 93 1017.7
20260505022907 41 295 0.0 0.0 0.00 0.00 0.00 93 1017.9
20260505022622 41 295 0.0 0.0 0.00 0.00 0.00 93 1017.8
20260505021906 41 295 0.0 0.0 0.00 0.00 0.00 93 1017.8